This is the latest recevied weather packets stored in our database for station/object DW9280. If no packets are shown the sender has not sent any weather packets the latest 10 day(s).
| Time | Temp. | Humidity | Pressure | Rain* | Wind** | Luminosity | Snow |
|---|---|---|---|---|---|---|---|
| 1787402826 | 19.44° C | 69% | 1020 hPa | 0 mm | - | 378 W/m² | - |
| 1787402529 | 19.44° C | 64% | 1019.9 hPa | 0 mm | - | 323 W/m² | - |
| 1787402229 | 19.44° C | 64% | 1019.8 hPa | 0 mm | - | 461 W/m² | - |
| 1787401964 | 20° C | 66% | 1019.8 hPa | 0 mm | - | 290 W/m² | - |
| 1787401754 | 20° C | 65% | 1019.8 hPa | 0 mm | - | 438 W/m² | - |
| 1787401327 | 20° C | 64% | 1019.7 hPa | 0 mm | - | 406 W/m² | - |
| 1787401028 | 20.56° C | 63% | 1019.7 hPa | 0 mm | - | 448 W/m² | - |
| 1787400729 | 20.56° C | 63% | 1019.6 hPa | 0 mm | - | 476 W/m² | - |
| 1787400427 | 20.56° C | 62% | 1019.6 hPa | 0 mm | - | 540 W/m² | - |
| 1787400128 | 20.56° C | 64% | 1019.7 hPa | 0 mm | - | 624 W/m² | - |
| 1787399951 | 20° C | 64% | 1019.7 hPa | 0 mm | - | 624 W/m² | - |
| 1787399653 | 20.56° C | 64% | 1019.7 hPa | 0 mm | - | 218 W/m² | - |
| 1787399227 | 20.56° C | 64% | 1019.7 hPa | 0 mm | - | 761 W/m² | - |
| 1787399055 | 20.56° C | 65% | 1019.7 hPa | 0 mm | - | 817 W/m² | - |
| 1787398626 | 20° C | 65% | 1019.6 hPa | 0 mm | - | 178 W/m² | - |
| 1787398331 | 20.56° C | 66% | 1019.6 hPa | 0 mm | - | 207 W/m² | - |
| 1787398025 | 20.56° C | 65% | 1019.5 hPa | 0 mm | - | 905 W/m² | - |
| 1787397724 | 20.56° C | 63% | 1019.3 hPa | 0 mm | - | 905 W/m² | - |
| 1787397425 | 20.56° C | 64% | 1019.3 hPa | 0 mm | - | 784 W/m² | - |
| 1787397126 | 20.56° C | 63% | 1019.3 hPa | 0 mm | - | 742 W/m² | - |
| 1787396825 | 20° C | 63% | 1019.2 hPa | 0 mm | - | 735 W/m² | - |
| 1787396523 | 20.56° C | 64% | 1019.2 hPa | 0 mm | - | 754 W/m² | - |
| 1787396226 | 20° C | 64% | 1019.2 hPa | 0 mm | - | 744 W/m² | - |
| 1787395926 | 20° C | 67% | 1019.2 hPa | 0 mm | - | 786 W/m² | - |
| 1787395622 | 20.56° C | 66% | 1019.1 hPa | 0 mm | - | 232 W/m² | - |
* Rain latest hour (hover to see other rain measurements)
** Current wind speed in m/s (hover to see current wind gust speed)